Weather History for Monett, MO

Change the Weather History Date:

Saturday, October 6, 2012

  Actual Average (KJLN) Record (KJLN)
Temperature  
Mean Temperature 40 °F 63 °F  
Max Temperature 44 °F 74 °F 90 °F (1963)
Min Temperature 35 °F 51 °F 33 °F (2012)
Degree Days  
Heating Degree Days 26 5  
Month to date heating degree days 26  
Since 1 July heating degree days 68  
Cooling Degree Days 0 2  
Month to date cooling degree days 17  
Year to date cooling degree days 1659  
Growing Degree Days 0 (Base 50)    
Moisture  
Dew Point 34 °F    
Average Humidity 78    
Maximum Humidity 100    
Minimum Humidity 61    
Precipitation  
Precipitation 0.00 in 0.13 in 0.90 in (1951)
Month to date precipitation 0.80  
Year to date precipitation 36.72  
Sea Level Pressure  
Sea Level Pressure 30.26 in    
Wind  
Wind Speed 6 mph (North)    
Max Wind Speed 14 mph    
Max Gust Speed 17 mph    
Visibility 10 miles    
Events Rain    
T = Trace of Precipitation, MM = Missing Value Source: NWS Daily Summary

Daily Weather History Graph

Daily Weather History Graph

Search for Another Location

Airport:

Trip Planner

Search our weather history database for the weather conditions in past years. The results will help you decide how hot, cold, wet, or windy it might be!

Date:

Astronomy

Oct. 06, 2012 Rise Set
Actual Time 7:16 AM CDT 6:51 PM CDT
Civil Twilight 6:50 AM CDT 7:17 PM CDT
Nautical Twilight 6:20 AM CDT 7:47 PM CDT
Astronomical Twilight 5:49 AM CDT 8:17 PM CDT
Moon 11:14 PM CDT (10/6) 1:04 PM CDT (10/6)
Length of Visible Light 12h 27m
Length of Day
11h 35m
Waning Gibbous, 65% of the Moon is Illuminated
Oct 6
Waning Gibbous
Oct 8
Last Quarter
Oct 15
New
Oct 21
First Quarter
Oct 29
Full

Hourly Weather History & Observations

Time (CDT) Temp. Windchill Dew Point Humidity Pressure Visibility Wind Dir Wind Speed Gust Speed Precip Events Conditions
12:15 AM 35.6 °F 29.9 °F 35.6 °F 100% 30.25 in 10.0 mi North 6.9 mph - N/A   Clear
12:35 AM 37.4 °F 32.1 °F 35.6 °F 93% 30.25 in 10.0 mi North 6.9 mph - N/A   Clear
12:55 AM 37.4 °F 32.1 °F 35.6 °F 93% 30.25 in 10.0 mi North 6.9 mph - N/A   Clear
1:15 AM 37.4 °F 32.1 °F 35.6 °F 93% 30.23 in 10.0 mi North 6.9 mph - N/A   Clear
1:55 AM 37.4 °F 30.8 °F 33.8 °F 87% 30.25 in 10.0 mi North 9.2 mph - N/A   Clear
2:15 AM 37.4 °F 30.3 °F 33.8 °F 87% 30.25 in 10.0 mi North 10.4 mph - N/A   Clear
2:35 AM 37.4 °F 31.4 °F 33.8 °F 87% 30.26 in 10.0 mi North 8.1 mph - N/A   Clear
2:55 AM 35.6 °F 29.2 °F 33.8 °F 93% 30.25 in 10.0 mi North 8.1 mph - N/A   Clear
3:15 AM 35.6 °F 29.2 °F 33.8 °F 93% 30.25 in 10.0 mi North 8.1 mph - N/A   Clear
3:35 AM 35.6 °F 29.2 °F 33.8 °F 93% 30.25 in 10.0 mi North 8.1 mph - N/A   Clear
3:55 AM 35.6 °F 32.8 °F 33.8 °F 93% 30.25 in 10.0 mi NNE 3.5 mph - N/A   Clear
4:15 AM 35.6 °F 29.9 °F 33.8 °F 93% 30.25 in 10.0 mi North 6.9 mph - N/A   Clear
4:35 AM 35.6 °F 31.7 °F 33.8 °F 93% 30.25 in 10.0 mi NNE 4.6 mph - N/A   Clear
4:55 AM 35.6 °F 31.7 °F 33.8 °F 93% 30.25 in 10.0 mi North 4.6 mph - N/A   Clear
5:15 AM 35.6 °F 30.7 °F 33.8 °F 93% 30.25 in 10.0 mi North 5.8 mph - N/A   Clear
5:35 AM 35.6 °F 30.7 °F 33.8 °F 93% 30.25 in 10.0 mi North 5.8 mph - N/A   Clear
5:55 AM 37.4 °F 33.8 °F 33.8 °F 87% 30.25 in 10.0 mi NE 4.6 mph - N/A   Scattered Clouds
6:15 AM 37.4 °F 33.8 °F 33.8 °F 87% 30.23 in 10.0 mi NE 4.6 mph - N/A   Mostly Cloudy
6:55 AM 37.4 °F 33.8 °F 35.6 °F 93% 30.23 in 10.0 mi ENE 4.6 mph - N/A   Scattered Clouds
7:15 AM 37.4 °F 33.8 °F 33.8 °F 87% 30.25 in 10.0 mi NE 4.6 mph - N/A   Scattered Clouds
7:35 AM 37.4 °F 33.8 °F 33.8 °F 87% 30.24 in 10.0 mi NE 4.6 mph - N/A   Scattered Clouds
7:55 AM 37.4 °F 34.9 °F 33.8 °F 87% 30.26 in 10.0 mi NNE 3.5 mph - N/A   Mostly Cloudy
8:15 AM 39.2 °F 35.9 °F 35.6 °F 87% 30.26 in 10.0 mi NE 4.6 mph - N/A   Mostly Cloudy
8:35 AM 39.2 °F 34.2 °F 33.8 °F 81% 30.25 in 10.0 mi NE 6.9 mph - N/A   Scattered Clouds
8:55 AM 41.0 °F 38.0 °F 35.6 °F 81% 30.27 in 10.0 mi NE 4.6 mph - N/A   Scattered Clouds
9:15 AM 41.0 °F 38.0 °F 33.8 °F 76% 30.26 in 10.0 mi NE 4.6 mph - N/A   Scattered Clouds
9:35 AM 41.0 °F 36.4 °F 33.8 °F 76% 30.28 in 10.0 mi North 6.9 mph - N/A   Mostly Cloudy
9:55 AM 41.0 °F 38.0 °F 33.8 °F 76% 30.29 in 10.0 mi NNE 4.6 mph - N/A   Overcast
10:15 AM 41.0 °F 39.0 °F 33.8 °F 76% 30.29 in 10.0 mi North 3.5 mph - N/A   Overcast
10:35 AM 42.8 °F 40.1 °F 33.8 °F 70% 30.30 in 10.0 mi North 4.6 mph - N/A   Overcast
10:55 AM 42.8 °F 38.6 °F 35.6 °F 76% 30.30 in 10.0 mi North 6.9 mph - N/A   Overcast
11:15 AM 42.8 °F 39.3 °F 33.8 °F 70% 30.30 in 10.0 mi North 5.8 mph - N/A   Overcast
11:35 AM 42.8 °F - 33.8 °F 70% 30.29 in 10.0 mi Calm Calm - N/A   Overcast
11:55 AM 42.8 °F 40.1 °F 33.8 °F 70% 30.28 in 10.0 mi NNE 4.6 mph - N/A   Overcast
12:15 PM 44.6 °F 40.7 °F 33.8 °F 66% 30.28 in 10.0 mi North 6.9 mph - N/A   Overcast
12:35 PM 44.6 °F 40.2 °F 33.8 °F 66% 30.29 in 10.0 mi North 8.1 mph - N/A   Overcast
12:55 PM 44.6 °F 42.2 °F 33.8 °F 66% 30.29 in 10.0 mi NNE 4.6 mph - N/A   Overcast
1:15 PM 44.6 °F 40.7 °F 33.8 °F 66% 30.30 in 10.0 mi North 6.9 mph - N/A   Overcast
1:35 PM 44.6 °F 40.2 °F 35.6 °F 71% 30.28 in 10.0 mi NNW 8.1 mph - N/A   Overcast
1:55 PM 44.6 °F 40.2 °F 33.8 °F 66% 30.28 in 10.0 mi North 8.1 mph - N/A   Overcast
2:15 PM 44.6 °F 41.4 °F 35.6 °F 71% 30.26 in 10.0 mi North 5.8 mph - N/A   Overcast
2:35 PM 44.6 °F 40.2 °F 33.8 °F 66% 30.25 in 10.0 mi North 8.1 mph - N/A   Overcast
2:55 PM 44.6 °F 39.7 °F 33.8 °F 66% 30.25 in 10.0 mi North 9.2 mph - N/A   Overcast
3:15 PM 44.6 °F 40.2 °F 33.8 °F 66% 30.23 in 10.0 mi North 8.1 mph - N/A   Overcast
3:35 PM 44.6 °F 38.8 °F 32.0 °F 61% 30.24 in 10.0 mi North 11.5 mph 16.1 mph N/A   Overcast
3:55 PM 44.6 °F 39.2 °F 32.0 °F 61% 30.23 in 10.0 mi North 10.4 mph - N/A   Overcast
4:15 PM 44.6 °F 38.1 °F 32.0 °F 61% 30.24 in 10.0 mi North 13.8 mph 17.3 mph N/A   Overcast
4:35 PM 42.8 °F 38.6 °F 32.0 °F 66% 30.25 in 10.0 mi North 6.9 mph - N/A Rain Light Rain
4:55 PM 41.0 °F 35.2 °F 30.2 °F 65% 30.25 in 10.0 mi East 9.2 mph 12.7 mph N/A   Drizzle
5:15 PM 41.0 °F 38.0 °F 32.0 °F 70% 30.25 in 10.0 mi East 4.6 mph - N/A   Overcast
5:35 PM 41.0 °F - 32.0 °F 70% 30.25 in 10.0 mi Calm Calm - N/A   Overcast
6:15 PM 42.8 °F 38.6 °F 32.0 °F 66% 30.23 in 10.0 mi North 6.9 mph - N/A   Overcast
6:35 PM 41.0 °F 38.0 °F 32.0 °F 70% 30.25 in 10.0 mi North 4.6 mph - N/A   Overcast
6:55 PM 41.0 °F - 32.0 °F 70% 30.25 in 10.0 mi Calm Calm - N/A   Overcast
7:15 PM 39.2 °F - 35.6 °F 87% 30.26 in 10.0 mi Calm Calm - N/A   Overcast
7:35 PM 39.2 °F 35.0 °F 35.6 °F 87% 30.26 in 10.0 mi NNE 5.8 mph - N/A   Overcast
7:55 PM 41.0 °F 38.0 °F 32.0 °F 70% 30.27 in 10.0 mi North 4.6 mph - N/A   Overcast
8:15 PM 41.0 °F 39.0 °F 33.8 °F 76% 30.28 in 10.0 mi NNW 3.5 mph - N/A   Overcast
8:35 PM 41.0 °F 39.0 °F 32.0 °F 70% 30.28 in 10.0 mi NNW 3.5 mph - N/A   Overcast
8:55 PM 41.0 °F 39.0 °F 33.8 °F 76% 30.28 in 10.0 mi NNW 3.5 mph - N/A   Overcast
9:15 PM 41.0 °F 39.0 °F 33.8 °F 76% 30.28 in 10.0 mi NNW 3.5 mph - N/A   Overcast
9:35 PM 41.0 °F 39.0 °F 33.8 °F 76% 30.28 in 10.0 mi NNW 3.5 mph - N/A   Overcast
9:55 PM 41.0 °F 39.0 °F 33.8 °F 76% 30.28 in 10.0 mi NNW 3.5 mph - N/A   Overcast
10:15 PM 41.0 °F 39.0 °F 33.8 °F 76% 30.28 in 10.0 mi NNW 3.5 mph - N/A   Overcast
10:35 PM 41.0 °F 39.0 °F 33.8 °F 76% 30.27 in 10.0 mi NNW 3.5 mph - N/A   Overcast
10:55 PM 41.0 °F 37.1 °F 33.8 °F 76% 30.27 in 10.0 mi NNW 5.8 mph - N/A   Overcast
11:15 PM 41.0 °F 35.8 °F 32.0 °F 70% 30.28 in 10.0 mi NNW 8.1 mph - N/A   Overcast
11:35 PM 39.2 °F 34.2 °F 32.0 °F 75% 30.28 in 10.0 mi NNW 6.9 mph - N/A   Overcast
11:55 PM 37.4 °F 33.8 °F 32.0 °F 81% 30.28 in 10.0 mi North 4.6 mph - N/A   Overcast